Weather History for Hall Beach, NU

Change the Weather History Date:

Friday, August 30, 2013

  Actual Average Record
Temperature  
Mean Temperature 34 °F -  
Max Temperature 37 °F 39 °F 46 °F (2001)
Min Temperature 32 °F 32 °F 26 °F (1996)
Degree Days  
Heating Degree Days 30    
Moisture  
Dew Point 29 °F    
Average Humidity 81    
Maximum Humidity 87    
Minimum Humidity 70    
Precipitation  
Precipitation 0.00 in - - ()
Sea Level Pressure  
Sea Level Pressure 29.66 in    
Wind  
Wind Speed 20 mph ()    
Max Wind Speed 26 mph    
Max Gust Speed 33 mph    
Visibility 12.4 miles    
Events      
Averages and records for this station are not official NWS values.
T = Trace of Precipitation, MM = Missing Value Source: Averaged Metar Reports

Daily Weather History Graph

Daily Weather History Graph

Search for Another Location

Airport:

Trip Planner

Search our weather history database for the weather conditions in past years. The results will help you decide how hot, cold, wet, or windy it might be!

Date:

Astronomy

Aug. 30, 2013 Rise Set
Actual Time 5:40 AM EDT 9:07 PM EDT
Civil Twilight 4:29 AM EDT 10:17 PM EDT
Nautical Twilight 2:04 AM EDT 12:28 AM EDT
Astronomical Twilight Sun does not rise Sun does not rise
Moon 11:14 PM EDT 7:22 PM EDT
Length of Visible Light 17h 48m
Length of Day
15h 27m
Waning Crescent, 29% of the Moon is Illuminated
Aug 30
Waning Crescent
Sep 5
New
Sep 12
First Quarter
Sep 19
Full
Sep 26
Last Quarter

Hourly Weather History & Observations

Time (EDT) Temp. Windchill Dew Point Humidity Pressure Visibility Wind Dir Wind Speed Gust Speed Precip Events Conditions
12:00 AM 32.0 °F 18.4 °F 28.4 °F 87% 29.60 in 9.0 mi NNW 26.5 mph 32.2 mph N/A   Overcast
1:00 AM 32.0 °F 19.2 °F 28.4 °F 87% 29.61 in 9.0 mi NNW 23.0 mph 32.2 mph N/A   Overcast
2:00 AM 32.0 °F 18.9 °F 28.4 °F 87% 29.61 in 9.0 mi NNW 24.2 mph 29.9 mph N/A   Overcast
3:00 AM 32.0 °F 19.2 °F 28.4 °F 87% 29.62 in 9.0 mi NNW 23.0 mph 29.9 mph N/A   Overcast
4:00 AM 33.8 °F 20.8 °F 28.4 °F 81% 29.63 in 9.0 mi NNW 26.5 mph 32.2 mph N/A   Overcast
5:00 AM 33.8 °F 21.0 °F 30.2 °F 87% 29.63 in 9.0 mi NNW 25.3 mph 31.1 mph N/A   Overcast
6:00 AM 33.8 °F 21.0 °F 30.2 °F 87% 29.64 in 9.0 mi NNW 25.3 mph 33.4 mph N/A   Overcast
7:00 AM 33.8 °F 22.2 °F 28.4 °F 81% 29.66 in 9.0 mi North 20.7 mph 27.6 mph N/A   Overcast
8:00 AM 33.8 °F 21.6 °F 28.4 °F 81% 29.66 in 15.0 mi North 23.0 mph - N/A   Overcast
9:00 AM 33.8 °F 20.8 °F 28.4 °F 81% 29.67 in 15.0 mi North 26.5 mph - N/A   Overcast
10:00 AM 33.8 °F 20.8 °F 28.4 °F 81% 29.67 in 15.0 mi NNW 26.5 mph - N/A   Mostly Cloudy
11:00 AM 33.8 °F 21.9 °F 28.4 °F 81% 29.68 in 15.0 mi NNW 21.9 mph 28.8 mph N/A   Mostly Cloudy
12:00 PM 33.8 °F 21.6 °F 28.4 °F 81% 29.68 in 15.0 mi NNW 23.0 mph - N/A   Mostly Cloudy
1:00 PM 35.6 °F 24.2 °F 28.4 °F 75% 29.68 in 15.0 mi NNW 21.9 mph - N/A   Mostly Cloudy
2:00 PM 35.6 °F 24.8 °F 28.4 °F 75% 29.68 in 15.0 mi North 19.6 mph - N/A   Mostly Cloudy
3:00 PM 37.4 °F 26.9 °F 30.2 °F 75% 29.68 in 15.0 mi NNW 20.7 mph - N/A   Mostly Cloudy
4:00 PM 37.4 °F 26.9 °F 30.2 °F 75% 29.68 in 15.0 mi NNW 20.7 mph - N/A   Scattered Clouds
5:00 PM 37.4 °F 27.2 °F 30.2 °F 75% 29.68 in 15.0 mi North 19.6 mph - N/A   Scattered Clouds
6:00 PM 37.4 °F 28.5 °F 30.2 °F 75% 29.68 in 15.0 mi North 15.0 mph - N/A   Scattered Clouds
7:00 PM 37.4 °F 28.2 °F 28.4 °F 70% 29.68 in 15.0 mi North 16.1 mph - N/A   Partly Cloudy
7:41 PM 35.6 °F 27.5 °F 30.2 °F 81% 29.69 in 15.0 mi NNW 11.5 mph 19.6 mph N/A   Scattered Clouds
8:00 PM 35.6 °F 27.1 °F 30.2 °F 81% 29.69 in 15.0 mi NNW 12.7 mph - N/A   Scattered Clouds
9:00 PM 33.8 °F 25.8 °F 30.2 °F 87% 29.68 in 9.0 mi NW 10.4 mph - N/A   Clear
10:00 PM 33.8 °F 24.3 °F 30.2 °F 87% 29.67 in 9.0 mi NNW 13.8 mph - N/A   Scattered Clouds
11:00 PM 33.8 °F 24.3 °F 30.2 °F 87% 29.67 in 9.0 mi NNW 13.8 mph - N/A   Partly Cloudy